Location: Barrio Las Umbrías
(40.4173°N, 4.8685°W)
Time: 14:09:42
(UTC+00:00)

Cosmos 1680 Rocket - Pass Details

Date: 17 August 2022
Orbit: 759 x 781 km, 74.1° (Epoch: 27 September)

Event Time Altitude Azimuth Distance (km) Brightness Sun altitude
Exits shadow 21:56:47 39° 228° (SW) 1,126 4.3 -26.5°
Maximum altitude 21:58:33 62° 291° (WNW) 852 3.8 -26.7°
Drops below altitude 10° 22:03:43 10° 13° (NNE) 2,297 6.4 -27.4°
Sets 22:06:08 0° 16° (NNE) 3,227 7.2 -27.7°
